Weather History for Fort Smith, AR

Change the Weather History Date:

Wednesday, November 20, 2013

  Actual Average Record
Temperature  
Mean Temperature 55 °F 50 °F  
Max Temperature 67 °F 61 °F 82 °F (1989)
Min Temperature 42 °F 39 °F 18 °F (1914)
Degree Days  
Heating Degree Days 10 15  
Month to date heating degree days 213 234  
Since 1 July heating degree days 348 388  
Growing Degree Days 4 (Base 50)    
Moisture  
Dew Point 31 °F    
Average Humidity 42    
Maximum Humidity 62    
Minimum Humidity 22    
Precipitation  
Precipitation 0.00 in 0.15 in 1.53 in (1934)
Month to date precipitation 1.27 3.02  
Year to date precipitation 41.82 40.75  
Sea Level Pressure  
Sea Level Pressure 30.03 in    
Wind  
Wind Speed 9 mph (ESE)    
Max Wind Speed 15 mph    
Max Gust Speed 18 mph    
Visibility 10 miles    
Events      
T = Trace of Precipitation, MM = Missing Value Source: NWS Daily Summary

Daily Weather History Graph

Daily Weather History Graph

Search for Another Location

Airport:

Trip Planner

Search our weather history database for the weather conditions in past years. The results will help you decide how hot, cold, wet, or windy it might be!

Date:

Astronomy

Nov. 20, 2013 Rise Set
Actual Time 6:57 AM CST 5:08 PM CST
Civil Twilight 6:30 AM CST 5:35 PM CST
Nautical Twilight 5:59 AM CST 6:06 PM CST
Astronomical Twilight 5:29 AM CST 6:36 PM CST
Moon 7:51 PM CST (11/20) 9:23 AM CST (11/20)
Length of Visible Light 11h 05m
Length of Day
10h 10m
Waning Gibbous, 91% of the Moon is Illuminated
Nov 20
Waning Gibbous
Nov 25
Last Quarter
Dec 2
New
Dec 9
First Quarter
Dec 17
Full

Hourly Weather History & Observations

Time (CST) Temp. Windchill Dew Point Humidity Pressure Visibility Wind Dir Wind Speed Gust Speed Precip Events Conditions
12:53 AM 48.9 °F - 28.9 °F 46% 30.10 in 10.0 mi East 8.1 mph - N/A   Mostly Cloudy
2:53 AM 46.0 °F 40.6 °F 30.0 °F 54% 30.09 in 10.0 mi East 11.5 mph - N/A   Clear
3:53 AM 45.0 °F 41.2 °F 30.0 °F 56% 30.09 in 10.0 mi East 6.9 mph - N/A   Clear
4:53 AM 44.1 °F 39.0 °F 30.0 °F 58% 30.08 in 10.0 mi East 9.2 mph - N/A   Clear
5:53 AM 43.0 °F 37.7 °F 30.0 °F 60% 30.08 in 10.0 mi East 9.2 mph - N/A   Clear
6:53 AM 43.0 °F 37.2 °F 30.9 °F 62% 30.08 in 10.0 mi East 10.4 mph - N/A   Clear
7:53 AM 45.0 °F 38.5 °F 30.9 °F 58% 30.09 in 10.0 mi East 13.8 mph - N/A   Overcast
8:53 AM 46.9 °F - 30.9 °F 54% 30.08 in 10.0 mi ENE 13.8 mph - N/A   Mostly Cloudy
9:53 AM 51.1 °F - 32.0 °F 48% 30.08 in 10.0 mi ENE 10.4 mph - N/A   Clear
10:53 AM 55.0 °F - 30.0 °F 38% 30.07 in 10.0 mi ESE 9.2 mph - N/A   Clear
11:53 AM 59.0 °F - 28.0 °F 31% 30.04 in 10.0 mi ESE 9.2 mph - N/A   Clear
12:53 PM 62.1 °F - 28.0 °F 28% 30.00 in 10.0 mi Variable 6.9 mph - N/A   Overcast
1:53 PM 64.9 °F - 28.0 °F 25% 29.96 in 10.0 mi SE 8.1 mph - N/A   Clear
2:53 PM 64.9 °F - 27.0 °F 24% 29.94 in 10.0 mi SSE 11.5 mph - N/A   Clear
3:53 PM 66.0 °F - 27.0 °F 23% 29.94 in 10.0 mi SE 6.9 mph - N/A   Clear
4:53 PM 64.9 °F - 27.0 °F 24% 29.95 in 10.0 mi SE 8.1 mph - N/A   Overcast
5:53 PM 64.0 °F - 30.9 °F 29% 29.96 in 10.0 mi SE 5.8 mph - N/A   Overcast
6:53 PM 63.0 °F - 39.0 °F 41% 29.97 in 10.0 mi SE 5.8 mph - N/A   Overcast
7:53 PM 62.1 °F - 33.1 °F 34% 29.98 in 10.0 mi ESE 6.9 mph - N/A   Overcast
8:53 PM 61.0 °F - 35.1 °F 38% 30.00 in 10.0 mi ESE 5.8 mph - N/A   Overcast
9:53 PM 60.1 °F - 34.0 °F 38% 29.99 in 10.0 mi ESE 8.1 mph - N/A   Overcast
10:53 PM 60.1 °F - 35.1 °F 39% 30.01 in 10.0 mi East 5.8 mph - N/A   Overcast
11:53 PM 59.0 °F - 37.0 °F 44% 30.02 in 10.0 mi East 4.6 mph - N/A   Overcast